Location: Newark
(39.6867°N, 100.6772°W)
Time: 11:02:50
(UTC+00:00)

Courier 1B Rocket - Visible Passes

Search period start: 18 October 2019 00:00
Search period end: 28 October 2019 00:00
Orbit: 920 x 1202 km, 28.2° (Epoch: 17 October)

Date Brightness Start Highest point End Pass type
(mag) Time Alt. Az. Time Alt. Az. Time Alt. Az.
18 Oct 6.5 10:30:05 20° S 10:30:55 20° SSE 10:35:25 10° ESE visible
18 Oct 6.4 12:18:09 10° SW 12:23:29 29° S 12:29:02 10° ESE visible
19 Oct 7.3 09:32:59 12° SE 09:32:59 12° SE 09:33:51 10° ESE visible
19 Oct 6.3 11:19:22 17° SW 11:22:43 27° S 11:28:00 10° ESE visible
20 Oct 6.4 10:22:14 24° SSE 10:22:14 24° SSE 10:26:54 10° ESE visible
20 Oct 6.3 12:09:19 10° WSW 12:14:35 29° S 12:20:02 10° SE visible
21 Oct 7.4 09:25:05 12° ESE 09:25:05 12° ESE 09:25:42 10° ESE visible
21 Oct 6.1 11:11:27 22° SSW 11:13:49 29° S 11:19:09 10° ESE visible
22 Oct 6.4 10:14:17 25° SSE 10:14:17 25° SSE 10:18:13 10° ESE visible
22 Oct 6.3 12:00:40 10° WSW 12:05:42 27° S 12:10:54 10° SE visible
23 Oct 7.5 09:17:08 10° ESE 09:17:08 10° ESE 09:17:14 10° ESE visible
23 Oct 6.0 11:03:30 26° SSW 11:04:56 28° S 11:10:11 10° SE visible
24 Oct 6.5 10:06:20 23° SE 10:06:20 23° SE 10:09:25 10° ESE visible
24 Oct 6.4 11:52:42 13° WSW 11:56:46 23° SSW 12:01:36 10° SE visible
25 Oct 6.1 10:55:33 26° SSW 10:56:02 26° S 11:01:07 10° SE visible
26 Oct 6.8 09:58:24 19° SE 09:58:24 19° SE 10:00:31 10° SE visible
26 Oct 6.5 11:44:47 14° SW 11:47:49 19° SSW 11:52:02 10° SSE visible
27 Oct 6.3 10:47:39 23° S 10:47:39 23° S 10:51:52 10° SE visible
27 Oct 7.1 12:39:03 10° SSW 12:39:30 10° SSW 12:39:57 10° SSW visible
